EW9506 Weather Reports


Display with metric or nautical units.
time (UTC)temp
F
wind
direction
speed
MPH
gust
MPH
rain 1hr
in
rain 24hr
in
rain mn
in
humidity
%
barometer
mb
20200711181710 80 229 6.0 10.0 0.00 0.00 0.00 32 1014.3
20200711180109 79 208 2.0 10.0 0.00 0.00 0.00 32 1014.5
20200711174653 78 159 1.0 9.0 0.00 0.00 0.00 33 1014.8
20200711173246 77 127 5.0 11.0 0.00 0.00 0.00 34 1015.0
20200711171626 77 184 5.0 11.0 0.00 0.00 0.00 33 1015.1
20200711164511 75 116 4.0 8.0 0.00 0.00 0.00 36 1015.4
20200711163002 74 102 3.0 12.0 0.00 0.00 0.00 37 1015.5
20200711161613 74 163 5.0 11.0 0.00 0.00 0.00 36 1015.7
20200711154643 73 190 2.0 5.0 0.00 0.02 0.00 37 1015.9
20200711153044 72 150 3.0 7.0 0.00 0.02 0.00 37 1016.0
20200711151548 71 155 3.0 9.0 0.00 0.02 0.00 38 1016.1
20200711150036 71 184 3.0 6.0 0.00 0.02 0.00 40 1015.9
20200711144713 70 112 3.0 7.0 0.00 0.02 0.00 41 1016.0
20200711143042 69 168 2.0 6.0 0.00 0.02 0.00 44 1016.1
20200711141734 67 206 1.0 5.0 0.00 0.02 0.00 55 1016.1
20200711140152 65 236 2.0 4.0 0.00 0.02 0.00 63 1016.2
20200711133134 62 231 3.0 5.0 0.00 0.02 0.00 68 1016.1
20200711131721 60 222 4.0 6.0 0.00 0.02 0.00 71 1016.2
20200711131509 60 222 4.0 6.0 0.00 0.02 0.00 71 1016.2
20200711130112 58 230 3.0 5.0 0.00 0.02 0.00 74 1016.3
20200711124550 57 221 3.0 4.0 0.00 0.02 0.00 78 1016.1
20200711123113 56 220 3.0 5.0 0.00 0.02 0.00 79 1016.1
20200711120152 54 213 3.0 4.0 0.00 0.02 0.00 81 1016.0
20200711114822 54 216 3.0 4.0 0.00 0.02 0.00 80 1015.8
20200711113248 53 209 1.0 3.0 0.00 0.02 0.00 81 1015.7
20200711111742 53 202 2.0 4.0 0.00 0.02 0.00 80 1015.6
20200711110014 53 208 3.0 5.0 0.00 0.02 0.00 80 1015.5
20200711104509 53 204 2.0 5.0 0.00 0.02 0.00 78 1015.3
20200711103034 55 193 2.0 4.0 0.00 0.02 0.00 76 1015.1
20200711101505 56 209 2.0 4.0 0.00 0.02 0.00 75 1015.1
20200711100113 55 214 3.0 4.0 0.00 0.02 0.00 76 1015.1
20200711094603 56 211 2.0 3.0 0.00 0.02 0.00 75 1015.0
20200711093013 56 211 2.0 4.0 0.00 0.02 0.00 72 1014.9
20200711090010 58 254 1.0 3.0 0.00 0.02 0.00 68 1014.8
20200711084538 58 340 0.0 0.0 0.00 0.02 0.00 66 1014.7
20200711083037 59 340 0.0 0.0 0.00 0.02 0.00 64 1014.7
20200711081504 60 340 0.0 2.0 0.00 0.02 0.00 63 1014.7
20200711080115 61 340 0.0 1.0 0.00 0.02 0.00 62 1014.6
20200711074630 61 339 0.0 2.0 0.00 0.02 0.00 61 1014.6
20200711073123 61 336 1.0 3.0 0.00 0.02 0.00 61 1014.5
20200711071544 62 317 1.0 3.0 0.00 0.02 0.00 59 1014.4
20200711070057 62 315 1.0 3.0 0.00 0.02 0.00 60 1014.4
20200711064606 62 344 2.0 5.0 0.00 0.02 0.00 59 1014.3
20200711063055 62 315 1.0 2.0 0.00 0.02 0.00 58 1014.3
20200711061548 62 313 1.0 3.0 0.00 0.02 0.00 59 1014.2
20200711060032 62 335 0.0 0.0 0.00 0.02 0.00 58 1014.1
20200711054538 63 335 1.0 4.0 0.00 0.02 0.02 58 1014.0
20200711053121 63 5 5.0 8.0 0.00 0.02 0.02 58 1013.7
20200711051615 64 15 4.0 8.0 0.00 0.02 0.02 56 1013.7
20200711050018 64 9 8.0 11.0 0.00 0.02 0.02 55 1013.6
20200711044542 64 20 9.0 12.0 0.00 0.02 0.02 54 1013.4
20200711043021 65 28 6.0 10.0 0.00 0.02 0.02 53 1013.2
20200711041524 66 15 6.0 11.0 0.00 0.02 0.02 52 1013.0
20200711034525 67 24 9.0 14.0 0.00 0.08 0.02 50 1012.5
20200711033024 68 22 8.0 14.0 0.00 0.08 0.02 50 1012.3
20200711031524 69 20 10.0 15.0 0.00 0.08 0.02 51 1011.9
20200711030054 70 5 12.0 20.0 0.00 0.08 0.02 50 1011.2
20200711024635 70 17 14.0 22.0 0.00 0.08 0.02 49 1010.8
20200711023047 72 34 14.0 20.0 0.00 0.08 0.02 48 1010.7
20200711021551 73 25 19.0 26.0 0.00 0.08 0.02 46 1010.5
20200711020045 75 27 16.0 20.0 0.00 0.08 0.02 40 1010.3
20200711014533 76 9 14.0 25.0 0.00 0.08 0.02 38 1010.2
20200711013144 77 19 16.0 22.0 0.00 0.08 0.02 38 1010.0
20200711011700 78 13 13.0 20.0 0.00 0.08 0.02 38 1009.7
20200711010039 78 360 14.0 23.0 0.00 0.08 0.02 38 1009.3
20200711004510 79 27 17.0 22.0 0.00 0.08 0.02 37 1009.1
20200711001630 80 5 14.0 22.0 0.00 0.08 0.02 38 1008.7
20200711000110 80 5 15.0 23.0 0.00 0.08 0.02 38 1008.4
20200710234550 81 5 17.0 24.0 0.00 0.08 0.02 39 1008.2
20200710231525 81 355 18.0 24.0 0.00 0.08 0.02 39 1007.5
20200710230019 81 5 19.0 27.0 0.00 0.08 0.02 40 1007.4
20200710224638 80 355 20.0 28.0 0.00 0.08 0.02 43 1007.4
20200710223140 80 12 18.0 28.0 0.00 0.08 0.02 45 1007.2
20200710221502 81 355 18.0 30.0 0.00 0.08 0.02 46 1006.9
20200710220001 82 355 20.0 32.0 0.00 0.08 0.02 43 1006.5
20200710213147 83 333 20.0 34.0 0.00 0.08 0.02 43 1006.0
20200710210116 83 342 18.0 32.0 0.00 0.08 0.02 44 1005.5
20200710204651 85 326 23.0 34.0 0.00 0.08 0.02 38 1004.7
20200710203201 87 322 20.0 30.0 0.00 0.08 0.02 27 1004.2
20200710201503 94 245 12.0 23.0 0.00 0.08 0.02 11 1003.8
20200710200001 93 256 13.0 23.0 0.00 0.08 0.02 12 1003.7
20200710194739 94 226 12.0 19.0 0.00 0.08 0.02 13 1003.7
20200710194613 94 229 12.0 19.0 0.00 0.08 0.02 13 1003.7
20200710193011 92 227 12.0 21.0 0.00 0.08 0.02 15 1004.1
20200710191503 92 229 13.0 20.0 0.00 0.08 0.02 14 1004.4
20200710190015 90 229 8.0 16.0 0.00 0.08 0.02 21 1004.7
20200710184523 89 201 7.0 15.0 0.00 0.08 0.02 22 1005.1
20200710183013 89 228 9.0 16.0 0.00 0.08 0.02 24 1005.3